Time,TemperatureF,DewpointF,PressureIn,WindDirection,WindDirectionDegrees,WindSpeedMPH,WindSpeedGustMPH,Humidity,HourlyPrecipIn,Conditions,Clouds,dailyrainin,SoftwareType,DateUTC
2013-03-05 00:02:00,49.0,42.0,30.03,SSE,168,0.0,-999.0,77,-99.99,,,-99.99,,2013-03-05 08:02:00,
2013-03-05 00:11:00,49.0,42.0,30.03,SSE,168,0.0,-999.0,77,-99.99,,,-99.99,,2013-03-05 08:11:00,
2013-03-05 00:21:00,49.0,42.0,30.03,SSE,168,0.0,-999.0,77,-99.99,,,-99.99,,2013-03-05 08:21:00,
2013-03-05 00:31:00,48.0,41.0,30.03,SSE,163,0.0,-999.0,76,-99.99,,,-99.99,,2013-03-05 08:31:00,
2013-03-05 00:41:00,48.0,41.0,30.03,SSE,163,0.0,-999.0,76,-99.99,,,-99.99,,2013-03-05 08:41:00,
2013-03-05 00:51:00,48.0,41.0,30.03,SSE,163,0.0,-999.0,77,-99.99,,,-99.99,,2013-03-05 08:51:00,
2013-03-05 01:01:00,47.0,41.0,30.02,SSE,163,0.0,-999.0,78,-99.99,,,-99.99,,2013-03-05 09:01:00,
2013-03-05 01:11:00,47.0,41.0,30.02,SSE,163,0.0,-999.0,78,-99.99,,,-99.99,,2013-03-05 09:11:00,
2013-03-05 01:21:00,47.0,41.0,30.02,SSE,159,0.0,-999.0,80,-99.99,,,-99.99,,2013-03-05 09:21:00,
2013-03-05 01:31:00,47.0,41.0,30.02,SE,135,0.0,-999.0,81,-99.99,,,-99.99,,2013-03-05 09:31:00,
2013-03-05 01:42:00,47.0,41.0,30.02,SE,135,0.0,-999.0,81,-99.99,,,-99.99,,2013-03-05 09:42:00,
2013-03-05 01:51:00,47.0,41.0,30.03,SE,135,0.0,-999.0,81,-99.99,,,-99.99,,2013-03-05 09:51:00,
2013-03-05 02:01:00,46.0,41.0,30.02,SE,135,0.0,-999.0,82,-99.99,,,-99.99,,2013-03-05 10:01:00,
2013-03-05 02:11:00,46.0,41.0,30.02,SE,135,0.0,-999.0,82,-99.99,,,-99.99,,2013-03-05 10:11:00,
2013-03-05 02:21:00,46.0,41.0,30.02,SE,135,0.0,-999.0,83,-99.99,,,-99.99,,2013-03-05 10:21:00,
2013-03-05 02:32:00,46.0,41.0,30.02,SE,135,0.0,-999.0,83,-99.99,,,-99.99,,2013-03-05 10:32:00,
2013-03-05 02:41:00,46.0,41.0,30.02,SE,135,0.0,-999.0,83,-99.99,,,-99.99,,2013-03-05 10:41:00,
2013-03-05 02:51:00,45.0,40.0,30.01,SE,135,0.0,-999.0,84,-99.99,,,-99.99,,2013-03-05 10:51:00,
2013-03-05 03:01:00,45.0,40.0,30.02,SE,135,0.0,-999.0,84,-99.99,,,-99.99,,2013-03-05 11:01:00,
2013-03-05 03:11:00,45.0,40.0,30.02,SE,135,0.0,-999.0,84,-99.99,,,-99.99,,2013-03-05 11:11:00,
2013-03-05 03:21:00,45.0,41.0,30.01,SE,135,0.0,-999.0,85,-99.99,,,-99.99,,2013-03-05 11:21:00,
2013-03-05 03:32:00,45.0,41.0,30.01,SE,135,0.0,-999.0,86,-99.99,,,-99.99,,2013-03-05 11:32:00,
2013-03-05 03:41:00,45.0,41.0,30.01,SE,135,0.0,-999.0,86,-99.99,,,-99.99,,2013-03-05 11:41:00,
2013-03-05 03:52:00,45.0,41.0,30.01,SE,135,0.0,-999.0,86,-99.99,,,-99.99,,2013-03-05 11:52:00,
2013-03-05 04:02:00,45.0,41.0,30.01,SE,135,0.0,-999.0,85,-99.99,,,-99.99,,2013-03-05 12:02:00,
2013-03-05 04:11:00,45.0,41.0,30.01,SE,135,0.0,-999.0,85,-99.99,,,-99.99,,2013-03-05 12:11:00,
2013-03-05 04:22:00,46.0,40.0,30.01,SSE,154,1.0,-999.0,80,-99.99,,,-99.99,,2013-03-05 12:22:00,
2013-03-05 04:32:00,46.0,40.0,30.01,SE,146,0.0,-999.0,80,-99.99,,,-99.99,,2013-03-05 12:32:00,
2013-03-05 04:42:00,46.0,40.0,30.01,SE,146,0.0,-999.0,80,-99.99,,,-99.99,,2013-03-05 12:42:00,
2013-03-05 04:52:00,46.0,40.0,30.02,SSE,147,0.0,-999.0,78,-99.99,,,-99.99,,2013-03-05 12:52:00,
2013-03-05 05:01:00,46.0,39.0,30.02,SSE,147,0.0,-999.0,77,-99.99,,,-99.99,,2013-03-05 13:01:00,
2013-03-05 05:11:00,46.0,39.0,30.02,SSE,147,0.0,-999.0,77,-99.99,,,-99.99,,2013-03-05 13:11:00,
2013-03-05 05:21:00,46.0,39.0,30.01,ESE,118,1.0,-999.0,76,-99.99,,,-99.99,,2013-03-05 13:21:00,
2013-03-05 05:32:00,46.0,40.0,30.02,SSE,151,1.0,-999.0,79,-99.99,,,-99.99,,2013-03-05 13:32:00,
2013-03-05 05:42:00,46.0,40.0,30.02,SSE,151,1.0,-999.0,79,-99.99,,,-99.99,,2013-03-05 13:42:00,
2013-03-05 05:52:00,46.0,40.0,30.03,SE,128,1.0,-999.0,80,-99.99,,,-99.99,,2013-03-05 13:52:00,
2013-03-05 06:02:00,46.0,41.0,30.03,SE,126,1.0,-999.0,81,-99.99,,,-99.99,,2013-03-05 14:02:00,
2013-03-05 06:11:00,46.0,41.0,30.03,SE,126,1.0,-999.0,81,-99.99,,,-99.99,,2013-03-05 14:11:00,
2013-03-05 06:21:00,46.0,41.0,30.03,ESE,117,1.0,-999.0,83,-99.99,,,-99.99,,2013-03-05 14:21:00,
2013-03-05 06:31:00,45.0,40.0,30.03,ESE,118,2.0,-999.0,84,-99.99,,,-99.99,,2013-03-05 14:31:00,
2013-03-05 06:42:00,45.0,40.0,30.03,ESE,118,2.0,-999.0,84,-99.99,,,-99.99,,2013-03-05 14:42:00,
2013-03-05 06:52:00,45.0,41.0,30.02,SE,136,2.0,-999.0,85,-99.99,,,-99.99,,2013-03-05 14:52:00,
2013-03-05 07:01:00,45.0,41.0,30.02,ESE,111,1.0,-999.0,86,-99.99,,,-99.99,,2013-03-05 15:01:00,
2013-03-05 07:11:00,45.0,41.0,30.02,ESE,111,1.0,-999.0,86,-99.99,,,-99.99,,2013-03-05 15:11:00,
2013-03-05 07:21:00,45.0,41.0,30.03,SSE,154,1.0,-999.0,86,-99.99,,,-99.99,,2013-03-05 15:21:00,
2013-03-05 07:31:00,45.0,41.0,30.03,SSE,165,1.0,-999.0,86,-99.99,,,-99.99,,2013-03-05 15:31:00,
2013-03-05 07:42:00,45.0,41.0,30.03,SSE,165,1.0,-999.0,86,-99.99,,,-99.99,,2013-03-05 15:42:00,
2013-03-05 07:51:00,45.0,41.0,30.03,SE,133,1.0,-999.0,86,-99.99,,,-99.99,,2013-03-05 15:51:00,
2013-03-05 08:01:00,45.0,41.0,30.03,SSE,150,1.0,-999.0,86,-99.99,,,-99.99,,2013-03-05 16:01:00,
2013-03-05 08:11:00,45.0,41.0,30.03,SSE,150,1.0,-999.0,86,-99.99,,,-99.99,,2013-03-05 16:11:00,
2013-03-05 08:21:00,45.0,41.0,30.03,SE,132,1.0,-999.0,85,-99.99,,,-99.99,,2013-03-05 16:21:00,
2013-03-05 08:32:00,46.0,42.0,30.03,ESE,122,1.0,-999.0,85,-99.99,,,-99.99,,2013-03-05 16:32:00,
2013-03-05 08:41:00,46.0,42.0,30.03,ESE,122,1.0,-999.0,85,-99.99,,,-99.99,,2013-03-05 16:41:00,
2013-03-05 08:51:00,47.0,42.0,30.03,SSE,149,1.0,-999.0,84,-99.99,,,-99.99,,2013-03-05 16:51:00,
2013-03-05 09:01:00,47.0,42.0,30.03,SSE,161,2.0,-999.0,82,-99.99,,,-99.99,,2013-03-05 17:01:00,
2013-03-05 09:11:00,47.0,42.0,30.03,SSE,161,2.0,-999.0,82,-99.99,,,-99.99,,2013-03-05 17:11:00,
2013-03-05 09:21:00,47.0,42.0,30.03,SSE,161,2.0,-999.0,82,-99.99,,,-99.99,,2013-03-05 17:21:00,
2013-03-05 09:32:00,49.0,42.0,30.03,South,169,3.0,-999.0,78,-99.99,,,-99.99,,2013-03-05 17:32:00,
2013-03-05 09:41:00,49.0,42.0,30.03,South,169,3.0,-999.0,78,-99.99,,,-99.99,,2013-03-05 17:41:00,
2013-03-05 09:52:00,50.0,43.0,30.02,South,170,2.0,-999.0,78,-99.99,,,-99.99,,2013-03-05 17:52:00,
2013-03-05 10:01:00,51.0,44.0,30.02,SE,146,3.0,-999.0,76,-99.99,,,-99.99,,2013-03-05 18:01:00,
2013-03-05 10:11:00,51.0,44.0,30.02,SE,146,3.0,-999.0,76,-99.99,,,-99.99,,2013-03-05 18:11:00,
2013-03-05 10:21:00,52.0,43.0,30.01,ESE,121,3.0,-999.0,72,-99.99,,,-99.99,,2013-03-05 18:21:00,
2013-03-05 10:32:00,52.0,43.0,30.01,SW,223,3.0,-999.0,70,-99.99,,,-99.99,,2013-03-05 18:32:00,
2013-03-05 10:41:00,52.0,43.0,30.01,SW,223,3.0,-999.0,70,-99.99,,,-99.99,,2013-03-05 18:41:00,
2013-03-05 10:52:00,53.0,43.0,30.01,SE,126,2.0,-999.0,69,-99.99,,,-99.99,,2013-03-05 18:52:00,
2013-03-05 11:01:00,54.0,43.0,30.01,SE,144,3.0,-999.0,66,-99.99,,,-99.99,,2013-03-05 19:01:00,
2013-03-05 11:11:00,54.0,43.0,30.01,SE,144,3.0,-999.0,66,-99.99,,,-99.99,,2013-03-05 19:11:00,
2013-03-05 11:21:00,54.0,43.0,30.00,SE,126,3.0,-999.0,66,-99.99,,,-99.99,,2013-03-05 19:21:00,
2013-03-05 11:31:00,55.0,43.0,29.99,SE,141,2.0,-999.0,65,-99.99,,,-99.99,,2013-03-05 19:31:00,
2013-03-05 11:41:00,55.0,43.0,29.99,SE,141,2.0,-999.0,65,-99.99,,,-99.99,,2013-03-05 19:41:00,
2013-03-05 11:51:00,56.0,43.0,29.99,SSW,213,3.0,-999.0,61,-99.99,,,-99.99,,2013-03-05 19:51:00,
2013-03-05 12:01:00,57.0,43.0,29.99,WSW,240,3.0,-999.0,60,-99.99,,,-99.99,,2013-03-05 20:01:00,
2013-03-05 12:11:00,58.0,44.0,29.98,WSW,242,3.0,-999.0,60,-99.99,,,-99.99,,2013-03-05 20:11:00,
2013-03-05 12:21:00,58.0,44.0,29.98,WSW,242,3.0,-999.0,60,-99.99,,,-99.99,,2013-03-05 20:21:00,
2013-03-05 12:32:00,58.0,43.0,29.98,WSW,241,3.0,-999.0,57,-99.99,,,-99.99,,2013-03-05 20:32:00,
2013-03-05 12:41:00,58.0,43.0,29.98,WSW,241,3.0,-999.0,57,-99.99,,,-99.99,,2013-03-05 20:41:00,
2013-03-05 12:52:00,59.0,42.0,29.97,SW,231,3.0,-999.0,54,-99.99,,,-99.99,,2013-03-05 20:52:00,
2013-03-05 13:01:00,59.0,41.0,29.96,SSW,204,4.0,-999.0,51,-99.99,,,-99.99,,2013-03-05 21:01:00,
2013-03-05 13:11:00,59.0,41.0,29.96,SSW,204,4.0,-999.0,51,-99.99,,,-99.99,,2013-03-05 21:11:00,
2013-03-05 13:21:00,60.0,41.0,29.96,WSW,246,4.0,-999.0,49,-99.99,,,-99.99,,2013-03-05 21:21:00,
2013-03-05 13:31:00,60.0,43.0,29.95,SSW,202,5.0,-999.0,53,-99.99,,,-99.99,,2013-03-05 21:31:00,
2013-03-05 13:41:00,60.0,43.0,29.95,SSW,202,5.0,-999.0,53,-99.99,,,-99.99,,2013-03-05 21:41:00,
2013-03-05 13:52:00,60.0,42.0,29.95,SW,223,4.0,-999.0,51,-99.99,,,-99.99,,2013-03-05 21:52:00,
2013-03-05 14:01:00,60.0,43.0,29.94,SSW,211,4.0,-999.0,54,-99.99,,,-99.99,,2013-03-05 22:01:00,
2013-03-05 14:11:00,60.0,43.0,29.94,SSW,211,4.0,-999.0,54,-99.99,,,-99.99,,2013-03-05 22:11:00,
2013-03-05 14:21:00,60.0,44.0,29.93,SSW,195,4.0,-999.0,55,-99.99,,,-99.99,,2013-03-05 22:21:00,
2013-03-05 14:32:00,60.0,44.0,29.93,SW,217,3.0,-999.0,55,-99.99,,,-99.99,,2013-03-05 22:32:00,
2013-03-05 14:41:00,60.0,44.0,29.93,SW,217,3.0,-999.0,55,-99.99,,,-99.99,,2013-03-05 22:41:00,
2013-03-05 14:52:00,60.0,44.0,29.92,SSW,206,4.0,-999.0,56,-99.99,,,-99.99,,2013-03-05 22:52:00,
2013-03-05 15:01:00,60.0,45.0,29.93,WSW,240,4.0,-999.0,57,-99.99,,,-99.99,,2013-03-05 23:01:00,
2013-03-05 15:11:00,60.0,45.0,29.93,WSW,240,4.0,-999.0,57,-99.99,,,-99.99,,2013-03-05 23:11:00,
2013-03-05 15:21:00,60.0,44.0,29.92,South,184,4.0,-999.0,56,-99.99,,,-99.99,,2013-03-05 23:21:00,
2013-03-05 15:32:00,60.0,45.0,29.92,West,264,4.0,-999.0,57,-99.99,,,-99.99,,2013-03-05 23:32:00,
2013-03-05 15:41:00,60.0,45.0,29.92,West,264,4.0,-999.0,57,-99.99,,,-99.99,,2013-03-05 23:41:00,
2013-03-05 15:52:00,59.0,44.0,29.92,South,176,3.0,-999.0,57,-99.99,,,-99.99,,2013-03-05 23:52:00,
2013-03-05 16:01:00,60.0,45.0,29.91,WSW,257,3.0,-999.0,57,-99.99,,,-99.99,,2013-03-06 00:01:00,
2013-03-05 16:11:00,60.0,45.0,29.91,WSW,257,3.0,-999.0,57,-99.99,,,-99.99,,2013-03-06 00:11:00,
2013-03-05 16:21:00,60.0,45.0,29.91,WSW,248,3.0,-999.0,57,-99.99,,,-99.99,,2013-03-06 00:21:00,
2013-03-05 16:32:00,60.0,44.0,29.91,SW,224,3.0,-999.0,55,-99.99,,,-99.99,,2013-03-06 00:32:00,
2013-03-05 16:41:00,60.0,44.0,29.91,SW,224,3.0,-999.0,55,-99.99,,,-99.99,,2013-03-06 00:41:00,
2013-03-05 16:51:00,60.0,44.0,29.90,WSW,248,2.0,-999.0,56,-99.99,,,-99.99,,2013-03-06 00:51:00,
2013-03-05 17:01:00,59.0,44.0,29.90,SW,215,4.0,-999.0,58,-99.99,,,-99.99,,2013-03-06 01:01:00,
2013-03-05 17:11:00,59.0,44.0,29.90,SW,215,4.0,-999.0,58,-99.99,,,-99.99,,2013-03-06 01:11:00,
2013-03-05 17:21:00,58.0,44.0,29.89,SW,229,2.0,-999.0,59,-99.99,,,-99.99,,2013-03-06 01:21:00,
2013-03-05 17:31:00,58.0,44.0,29.88,SW,230,2.0,-999.0,60,-99.99,,,-99.99,,2013-03-06 01:31:00,
2013-03-05 17:41:00,58.0,44.0,29.88,SW,230,2.0,-999.0,60,-99.99,,,-99.99,,2013-03-06 01:41:00,
2013-03-05 17:51:00,57.0,44.0,29.87,SSW,213,1.0,-999.0,61,-99.99,,,-99.99,,2013-03-06 01:51:00,
2013-03-05 18:01:00,57.0,44.0,29.87,SSW,211,0.0,-999.0,62,-99.99,,,-99.99,,2013-03-06 02:01:00,
2013-03-05 18:11:00,57.0,44.0,29.87,SSW,211,0.0,-999.0,62,-99.99,,,-99.99,,2013-03-06 02:11:00,
2013-03-05 18:21:00,56.0,44.0,29.86,South,169,1.0,-999.0,64,-99.99,,,-99.99,,2013-03-06 02:21:00,
2013-03-05 18:31:00,56.0,44.0,29.86,South,169,0.0,-999.0,65,-99.99,,,-99.99,,2013-03-06 02:31:00,
2013-03-05 18:41:00,56.0,44.0,29.86,South,169,0.0,-999.0,65,-99.99,,,-99.99,,2013-03-06 02:41:00,
2013-03-05 18:52:00,55.0,44.0,29.86,South,169,0.0,-999.0,66,-99.99,,,-99.99,,2013-03-06 02:52:00,
2013-03-05 19:01:00,55.0,44.0,29.86,South,169,0.0,-999.0,67,-99.99,,,-99.99,,2013-03-06 03:01:00,
2013-03-05 19:11:00,55.0,44.0,29.86,South,169,0.0,-999.0,67,-99.99,,,-99.99,,2013-03-06 03:11:00,
2013-03-05 19:21:00,54.0,44.0,29.85,South,169,0.0,-999.0,68,-99.99,,,-99.99,,2013-03-06 03:21:00,
2013-03-05 19:31:00,54.0,44.0,29.86,South,169,0.0,-999.0,70,-99.99,,,-99.99,,2013-03-06 03:31:00,
2013-03-05 19:41:00,54.0,44.0,29.86,South,169,0.0,-999.0,70,-99.99,,,-99.99,,2013-03-06 03:41:00,
2013-03-05 19:52:00,54.0,44.0,29.85,South,169,0.0,-999.0,70,-99.99,,,-99.99,,2013-03-06 03:52:00,
2013-03-05 20:01:00,53.0,44.0,29.85,South,169,0.0,-999.0,71,-99.99,,,-99.99,,2013-03-06 04:01:00,
2013-03-05 20:11:00,53.0,44.0,29.85,South,169,0.0,-999.0,71,-99.99,,,-99.99,,2013-03-06 04:11:00,
2013-03-05 20:21:00,53.0,44.0,29.85,South,169,0.0,-999.0,71,-99.99,,,-99.99,,2013-03-06 04:21:00,
2013-03-05 20:31:00,53.0,45.0,29.85,South,169,0.0,-999.0,73,-99.99,,,-99.99,,2013-03-06 04:31:00,
2013-03-05 20:41:00,53.0,45.0,29.85,South,169,0.0,-999.0,73,-99.99,,,-99.99,,2013-03-06 04:41:00,
2013-03-05 20:51:00,52.0,44.0,29.85,South,169,0.0,-999.0,74,-99.99,,,-99.99,,2013-03-06 04:51:00,
2013-03-05 21:01:00,52.0,44.0,29.85,South,169,0.0,-999.0,75,-99.99,,,-99.99,,2013-03-06 05:01:00,
2013-03-05 21:11:00,52.0,44.0,29.85,South,169,0.0,-999.0,75,-99.99,,,-99.99,,2013-03-06 05:11:00,
2013-03-05 21:22:00,52.0,45.0,29.86,East,91,0.0,-999.0,76,-99.99,,,-99.99,,2013-03-06 05:22:00,
2013-03-05 21:32:00,52.0,44.0,29.86,East,91,0.0,-999.0,75,-99.99,,,-99.99,,2013-03-06 05:32:00,
2013-03-05 21:42:00,52.0,44.0,29.86,East,91,0.0,-999.0,75,-99.99,,,-99.99,,2013-03-06 05:42:00,
2013-03-05 21:52:00,52.0,45.0,29.85,East,91,0.0,-999.0,76,-99.99,,,-99.99,,2013-03-06 05:52:00,
2013-03-05 22:01:00,52.0,45.0,29.85,ESE,108,0.0,-999.0,76,-99.99,,,-99.99,,2013-03-06 06:01:00,
2013-03-05 22:11:00,52.0,45.0,29.85,ESE,108,0.0,-999.0,76,-99.99,,,-99.99,,2013-03-06 06:11:00,
2013-03-05 22:22:00,52.0,44.0,29.85,SSE,155,0.0,-999.0,75,-99.99,,,-99.99,,2013-03-06 06:22:00,
2013-03-05 22:31:00,52.0,44.0,29.85,SSE,159,1.0,-999.0,73,-99.99,,,-99.99,,2013-03-06 06:31:00,
2013-03-05 22:41:00,52.0,44.0,29.85,SSE,159,1.0,-999.0,73,-99.99,,,-99.99,,2013-03-06 06:41:00,
2013-03-05 22:52:00,52.0,43.0,29.85,SSE,158,0.0,-999.0,71,-99.99,,,-99.99,,2013-03-06 06:52:00,
2013-03-05 23:01:00,52.0,42.0,29.85,SSE,162,1.0,-999.0,69,-99.99,,,-99.99,,2013-03-06 07:01:00,
2013-03-05 23:11:00,52.0,42.0,29.85,SSE,162,1.0,-999.0,69,-99.99,,,-99.99,,2013-03-06 07:11:00,
2013-03-05 23:22:00,52.0,42.0,29.86,South,179,1.0,-999.0,68,-99.99,,,-99.99,,2013-03-06 07:22:00,
2013-03-05 23:31:00,52.0,42.0,29.86,SW,215,3.0,-999.0,69,-99.99,,,-99.99,,2013-03-06 07:31:00,
2013-03-05 23:41:00,52.0,42.0,29.86,SW,215,3.0,-999.0,69,-99.99,,,-99.99,,2013-03-06 07:41:00,
2013-03-05 23:52:00,51.0,45.0,29.85,ESE,120,1.0,-999.0,79,-99.99,,,-99.99,,2013-03-06 07:52:00,